Location: *
(50.3440°N, 18.6237°E)
Time: 13:37:53
(UTC+00:00)

Cosmos 1867 - Pass Details

Date: 30 November 2020
Orbit: 775 x 800 km, 65.0° (Epoch: 26 January)

Event Time Altitude Azimuth Distance (km) Brightness Sun altitude
Rises 15:21:26 0° 203° (SSW) 3,266 7.6 -5.8°
Reaches altitude 10° 15:23:52 10° 199° (SSW) 2,345 6.8 -6.1°
Maximum altitude 15:29:07 55° 123° (ESE) 952 3.8 -6.8°
Drops below altitude 10° 15:34:26 10° 46° (NE) 2,375 5.4 -7.6°
Enters shadow 15:34:58 - 45° (NE) 2,573 5.6 -7.7°
